Theta_e
345 346 349 353 353 353 352 353 353 353 353 353 353 353 354 353 353 353 353 353 353 354 355 354 354 354 354 354 354 354 353 353 353 353 352 352 353 353 352 352 352 351 350 349 349 350 349 348 347 346 346 346 346 345 343 342 342 344 345 345 345 345 345 345 344 344 344 345 345 345 346 346 347 347 346 345 343 343 342 341 341 337 336 337 340
343 347 349 351 353 353 352 352 353 352 352 353 353 353 354 353 353 353 353 353 354 355 355 354 354 354 354 354 354 354 353 353 353 352 352 352 352 353 353 352 351 349 350 350 350 349 349 347 346 345 344 344 345 345 344 341 341 341 343 344 344 344 344 344 344 345 344 344 344 344 345 345 346 346 345 345 344 343 342 341 340 338 336 340 340
345 347 348 350 352 352 352 351 352 352 352 353 353 353 353 353 353 353 353 354 354 354 354 354 354 354 354 354 354 353 353 353 353 352 352 352 352 353 352 352 350 349 350 350 350 350 349 347 346 345 344 343 343 343 342 341 342 342 341 341 342 343 344 343 344 345 345 345 345 344 344 344 344 344 344 344 343 342 342 341 341 340 337 341 339
344 347 348 349 352 352 352 351 352 351 351 352 353 353 353 353 353 353 354 354 354 354 353 354 354 354 354 353 354 354 353 353 352 352 352 352 351 352 352 350 350 350 350 349 349 349 348 348 347 346 345 344 343 342 341 341 341 341 342 343 343 344 343 342 344 344 344 343 342 341 340 334 338 342 342 342 342 341 340 340 339 339 339 338 339
345 346 346 347 349 351 352 351 351 350 351 352 353 353 353 353 353 353 353 354 354 353 353 354 353 353 353 354 353 353 353 353 352 352 352 352 351 352 351 350 350 350 350 349 349 349 348 348 347 347 345 344 343 342 340 340 341 340 341 342 343 343 344 343 343 343 342 342 341 339 332 334 334 340 341 341 341 340 340 340 339 338 337 338 337
344 345 346 347 348 349 352 352 350 350 352 352 353 353 353 353 353 353 353 353 353 353 353 354 353 353 353 353 353 353 353 353 352 352 351 351 351 351 351 351 350 351 350 350 349 349 348 348 347 347 345 345 342 342 342 340 340 340 340 341 341 341 341 342 344 343 344 345 342 336 332 333 334 337 341 341 340 340 340 339 339 337 337 338 337
344 345 346 346 346 349 351 351 350 350 351 352 352 353 353 352 352 353 353 353 353 354 354 354 353 353 353 353 353 353 353 353 352 352 351 351 351 350 351 351 351 350 350 349 349 348 348 348 348 347 345 344 343 343 342 341 341 341 340 340 340 340 341 340 341 342 342 342 334 334 330 334 336 339 343 343 341 341 341 340 339 338 338 338 336
344 346 346 346 346 350 351 350 350 350 351 352 352 352 352 352 353 353 353 353 353 353 354 353 353 353 353 353 353 353 353 352 352 351 351 351 351 351 351 351 349 349 349 349 348 347 347 347 347 348 346 344 343 344 343 342 342 342 342 342 343 343 344 344 345 344 343 342 334 333 331 334 336 338 342 343 343 342 341 339 338 338 338 337 336
343 345 346 346 346 350 351 351 350 350 351 351 351 351 352 353 353 353 353 353 354 353 353 353 353 353 353 352 352 352 352 352 352 351 351 351 351 351 351 351 350 349 348 347 347 346 346 346 346 346 345 345 344 344 344 344 344 343 344 343 344 344 344 344 345 345 344 340 337 332 333 334 336 336 341 342 341 339 339 339 339 338 337 337 336
343 344 345 345 346 350 350 350 350 350 351 351 351 352 352 353 353 354 354 354 353 353 353 353 353 353 352 352 352 352 352 352 351 351 351 350 350 350 350 349 349 348 348 348 347 347 347 347 347 346 346 345 345 345 344 345 345 345 345 345 345 344 345 345 346 344 339 337 335 332 334 342 335 335 339 340 340 340 338 338 340 337 337 337 336
342 343 344 345 346 350 350 350 350 349 351 351 352 352 353 354 354 354 353 354 353 353 353 353 353 352 352 352 352 352 351 351 351 351 350 350 350 349 349 349 348 348 348 347 347 347 347 348 348 348 346 344 344 345 344 346 345 345 345 346 346 346 345 347 344 336 336 333 333 334 342 343 331 332 341 340 340 339 338 337 337 337 336 336 336
342 343 344 345 349 350 350 350 350 351 351 351 352 353 354 353 353 353 353 353 353 353 353 352 352 352 352 351 351 351 350 350 350 349 349 348 348 348 347 347 347 347 347 346 347 348 348 347 348 348 347 346 346 345 345 346 345 345 346 346 346 346 346 346 339 335 335 335 337 337 338 335 331 338 341 340 339 340 338 337 337 336 336 336 335
341 343 344 345 347 350 351 351 351 351 352 352 353 353 353 353 353 353 353 353 353 353 352 352 352 352 351 351 351 350 350 349 349 348 348 347 347 347 346 346 345 345 345 345 346 347 347 347 347 347 347 347 347 347 346 345 346 346 347 346 347 347 347 345 339 336 334 335 335 335 332 331 332 342 341 341 340 339 338 337 337 336 336 336 335
341 343 344 345 347 351 351 352 352 352 353 353 353 353 353 353 353 353 353 353 352 352 352 351 351 351 350 350 350 349 349 348 347 347 347 346 346 345 344 344 344 344 344 344 344 345 346 346 347 347 346 346 347 347 347 346 346 346 347 347 347 346 347 344 343 338 336 332 334 332 331 334 334 342 341 340 340 340 338 338 337 336 336 334 333
341 343 344 345 346 348 353 353 353 354 354 353 353 353 353 353 353 352 353 352 352 352 351 351 351 350 350 349 349 348 347 347 346 346 346 345 345 344 343 343 342 342 342 343 343 344 344 345 346 346 347 346 346 346 347 347 347 347 348 347 347 347 347 342 342 338 335 334 334 337 333 333 342 343 342 341 340 338 338 337 337 334 333 333 333
343 343 345 345 347 349 350 353 354 354 353 353 353 353 353 352 352 352 352 352 351 351 351 351 350 350 349 348 348 347 347 347 346 345 344 344 344 343 343 342 342 342 342 342 341 342 343 343 344 344 346 346 346 347 346 346 347 348 347 347 347 347 347 348 338 337 334 334 334 334 332 335 343 342 342 341 340 338 336 337 337 336 333 333 333
343 344 343 344 346 348 349 351 353 354 354 353 353 352 352 352 352 352 351 351 351 351 350 350 349 349 349 348 347 347 346 346 345 345 345 344 344 343 343 342 341 341 340 341 341 341 342 342 343 344 344 344 346 345 346 347 347 347 347 347 347 347 347 349 339 335 334 334 335 333 332 335 341 343 342 341 340 339 338 338 337 335 333 333 332
342 342 342 344 345 347 349 350 350 350 351 352 353 352 352 352 351 351 351 351 351 350 350 349 349 349 349 348 347 347 347 346 346 346 345 344 344 343 343 342 342 340 340 340 340 341 341 341 343 343 344 344 344 346 347 347 347 347 347 347 348 347 348 346 335 335 335 338 333 335 334 340 342 342 341 341 340 339 338 337 336 336 334 333 332
341 341 342 343 344 346 347 347 348 348 349 349 348 350 352 352 351 351 351 350 350 350 350 349 349 349 348 348 348 348 347 347 346 346 345 344 343 343 343 343 343 341 341 341 340 338 338 340 341 344 343 343 345 345 346 347 347 347 348 348 348 348 348 339 335 335 336 338 332 332 332 341 343 342 341 340 340 338 338 338 337 336 335 334 332
339 340 340 342 344 344 344 345 345 347 348 347 347 349 351 352 351 351 351 350 350 350 349 349 349 349 349 349 348 348 347 344 347 344 345 343 343 343 343 342 342 342 342 342 343 341 340 340 342 342 342 342 344 345 345 346 347 347 348 348 349 349 336 332 335 336 332 333 336 332 336 342 342 342 341 340 340 338 337 338 338 336 335 334 333
338 338 338 340 342 342 342 344 346 347 347 347 347 347 350 351 350 351 351 350 349 349 349 349 349 349 348 348 347 341 340 341 340 340 344 340 344 344 343 343 342 344 343 343 343 342 341 340 340 341 341 342 342 343 344 346 347 348 348 348 349 340 334 332 333 336 331 335 339 331 339 343 343 342 343 341 341 340 339 339 338 338 336 335 334
335 336 338 339 340 340 340 342 343 345 346 346 346 347 349 349 345 346 345 346 348 349 346 343 350 342 349 344 340 342 339 339 339 347 342 341 341 344 344 343 343 344 344 344 344 344 344 342 341 342 342 342 343 333 336 341 344 347 349 350 345 336 335 333 332 334 334 334 336 333 341 344 343 343 343 342 342 341 339 339 338 338 337 336 335
334 335 336 338 338 338 339 340 341 342 343 342 345 347 346 343 343 343 345 348 348 348 342 346 340 340 342 341 342 340 340 340 342 346 344 345 343 344 344 343 344 344 345 345 345 345 345 345 344 343 342 343 336 332 332 332 334 345 347 343 339 337 334 334 334 333 332 332 333 336 344 344 344 345 344 343 342 342 340 339 339 339 338 336 336
334 335 335 338 338 337 338 338 340 341 341 340 344 345 342 341 341 342 343 342 341 343 340 342 341 341 341 339 341 342 343 339 348 348 348 343 340 346 345 345 345 346 346 346 345 345 344 344 345 344 343 338 330 328 330 332 335 336 337 337 337 336 335 335 334 335 330 333 334 337 345 345 345 346 345 344 343 342 341 341 340 340 338 337 337
336 337 337 338 338 338 338 338 340 340 340 341 341 340 340 340 340 341 340 340 339 340 340 340 340 339 338 340 339 343 340 337 337 339 337 337 336 336 337 338 338 337 344 337 336 338 338 335 333 334 328 328 327 327 328 329 332 335 337 337 336 334 333 334 335 336 335 332 337 339 347 346 345 346 346 345 344 342 342 342 342 341 339 338 337
338 336 338 339 339 340 340 339 340 338 339 340 341 343 342 339 340 340 341 341 342 340 340 339 338 338 339 340 342 338 339 335 335 335 336 335 335 336 335 336 335 338 342 334 334 335 335 336 335 332 327 326 325 325 326 332 330 332 335 336 336 334 333 334 335 335 333 330 335 342 346 345 345 346 347 347 345 344 343 343 343 343 340 338 337
337 336 336 336 337 340 341 340 338 336 337 339 340 342 340 340 341 341 341 340 341 340 336 336 338 338 340 343 338 336 335 334 334 333 333 335 334 333 336 337 336 336 340 334 335 337 336 335 333 333 330 325 323 324 324 326 327 329 334 337 336 336 335 335 334 330 329 331 335 344 345 345 345 346 347 348 347 347 345 344 343 343 341 339 338
334 333 334 335 336 337 340 340 337 335 335 337 339 339 338 338 339 344 343 343 342 338 336 338 340 340 342 345 344 337 336 335 334 333 333 334 337 337 335 336 337 337 339 337 334 335 336 337 337 336 333 327 324 324 325 327 329 329 331 335 336 335 334 332 331 331 330 331 333 342 345 344 344 345 347 348 348 348 347 346 345 344 343 341 340
332 332 334 335 336 337 340 340 338 335 335 336 337 337 336 337 337 339 338 344 339 338 339 339 339 341 342 345 343 335 335 334 335 334 333 334 337 340 336 333 335 338 337 335 335 336 335 336 336 336 335 334 333 332 336 335 332 331 330 330 331 331 331 331 330 330 331 331 332 337 347 345 344 344 346 348 348 348 348 347 346 346 345 344 342
332 333 334 335 337 339 340 340 338 335 335 335 336 335 333 334 335 337 340 344 339 340 339 338 339 339 339 341 343 337 336 335 335 336 334 333 335 334 334 332 334 335 334 333 335 336 334 334 335 336 338 336 336 336 336 336 336 335 333 333 332 330 330 329 329 329 331 331 331 336 346 345 344 343 343 346 348 347 348 348 348 347 344 344 341
334 333 334 336 338 338 338 337 338 338 335 334 334 334 335 334 336 337 337 337 338 339 338 337 336 336 336 337 339 343 340 337 336 335 333 333 332 331 333 333 333 335 334 333 333 336 334 334 335 335 337 337 336 336 336 336 335 336 334 334 333 332 332 332 331 331 331 331 330 333 341 347 345 344 343 341 344 347 347 346 344 344 344 343 341
333 334 335 335 335 335 336 336 335 337 336 335 335 334 335 336 337 337 337 338 340 339 339 338 339 335 336 335 337 338 342 338 338 337 335 334 333 332 331 332 332 334 332 332 334 334 334 335 336 335 335 334 335 335 336 334 334 335 335 334 333 334 333 332 332 332 333 332 331 333 333 339 345 346 345 342 341 343 345 346 346 345 344 341 340
334 334 334 334 333 334 335 334 336 336 335 334 334 334 335 336 336 336 337 338 339 339 338 337 336 336 334 335 335 337 340 336 336 336 338 331 332 330 330 331 331 333 334 335 336 334 335 336 336 336 336 334 334 333 335 333 333 333 334 334 334 334 334 334 335 333 333 333 333 333 333 333 335 341 342 344 342 342 343 344 344 345 346 344 342
333 333 333 333 335 335 335 335 335 334 335 334 334 334 334 335 336 335 337 336 336 337 337 337 337 336 335 335 336 336 338 337 337 336 335 334 332 331 330 331 331 332 333 334 335 333 334 334 334 334 337 332 332 332 332 331 331 332 332 333 333 333 334 334 333 334 333 334 334 332 334 332 332 333 334 340 342 342 342 342 344 344 345 345 344
332 332 333 334 334 334 335 335 336 335 335 334 334 334 334 334 334 334 334 335 335 334 334 335 335 334 334 334 335 337 338 340 338 335 335 335 333 332 331 332 331 333 334 335 334 333 333 332 332 331 330 330 331 331 329 328 328 329 330 331 331 332 332 332 333 333 333 334 334 333 334 333 333 332 333 333 337 340 340 341 343 343 344 344 345
332 333 333 333 332 332 334 333 333 333 334 335 334 334 334 334 335 337 334 335 334 334 333 334 333 334 334 334 335 337 338 340 340 337 336 335 333 332 333 334 335 335 334 332 331 330 329 329 329 328 327 327 328 325 325 325 326 327 328 328 328 329 329 330 330 331 333 334 334 334 335 334 334 333 339 334 333 334 338 339 339 340 342 343 344
333 332 331 331 332 333 333 332 332 333 334 334 334 333 334 334 334 334 334 334 334 334 334 334 333 332 333 334 334 337 337 337 337 336 334 332 331 330 331 333 333 330 329 328 328 329 327 327 325 327 325 323 324 322 322 323 325 326 326 325 326 327 327 328 329 330 332 331 332 333 334 335 336 342 336 334 334 334 336 338 339 339 339 341 341
333 332 332 331 330 331 331 332 332 332 332 332 332 332 333 333 333 333 335 334 334 334 334 334 332 332 333 333 336 335 334 333 334 334 333 332 329 328 328 330 329 328 327 326 325 327 325 324 323 323 324 323 321 320 320 321 324 325 325 323 324 325 326 327 327 328 326 327 328 330 331 330 331 334 334 334 334 334 334 336 337 336 337 336 336
331 331 332 331 331 331 333 333 332 331 332 333 333 332 332 332 332 332 332 332 333 333 333 333 333 331 333 335 334 333 332 331 331 333 330 328 327 326 326 327 327 325 324 323 323 324 324 322 322 321 322 322 320 319 319 320 322 322 322 322 322 323 325 324 321 321 322 324 326 327 324 321 322 327 328 329 331 330 333 334 332 332 333 336 336
331 332 332 331 331 331 332 332 332 333 332 330 331 330 331 330 329 330 330 330 331 332 331 332 332 332 332 331 330 330 331 330 329 329 330 328 326 325 324 325 325 323 322 321 321 321 321 320 320 321 319 320 319 318 317 318 318 316 319 321 320 321 323 320 319 320 322 322 322 320 317 316 317 319 321 323 323 323 324 326 330 331 332 333 335
332 332 331 331 331 331 332 332 333 333 330 329 329 329 328 328 328 328 327 328 330 331 331 330 329 329 328 328 328 328 328 329 329 328 327 329 326 325 324 323 324 323 321 320 320 320 320 320 319 319 319 317 315 315 315 316 313 312 314 316 318 320 323 319 317 319 319 319 319 315 313 312 314 315 316 317 316 316 317 319 321 324 327 329 330
330 330 330 331 331 332 332 332 332 331 330 330 330 328 327 328 327 327 327 328 329 328 327 327 326 326 325 324 324 324 324 326 327 326 325 325 324 322 322 321 321 321 320 320 319 321 317 317 317 316 317 316 312 313 313 313 309 308 310 312 313 316 319 318 315 317 316 316 315 313 311 310 312 313 313 313 313 313 314 315 317 319 324 324 324
330 330 331 332 333 333 332 332 331 331 331 331 329 327 326 328 328 328 330 330 330 329 326 325 324 323 322 322 322 321 322 322 323 324 322 321 320 319 319 319 319 320 316 316 315 315 315 315 314 313 312 314 313 313 312 311 307 309 309 308 307 310 312 312 313 314 314 313 312 311 310 309 310 311 311 310 310 311 312 313 316 320 322 321 318
331 331 332 333 333 331 331 331 331 330 329 329 327 327 330 330 330 331 331 330 326 325 323 323 321 321 320 320 320 319 320 320 320 320 318 318 317 317 317 317 316 317 315 314 314 313 313 313 313 313 310 308 308 309 312 311 310 308 304 306 307 306 303 305 306 310 312 312 310 309 309 308 309 309 309 308 308 309 310 311 314 318 322 316 314
331 331 333 333 332 331 331 330 330 329 329 331 329 330 331 330 330 330 330 327 326 323 321 319 320 320 319 318 317 318 318 318 318 318 318 315 315 315 315 315 315 315 315 314 313 312 312 312 312 311 310 306 306 306 309 311 309 312 307 305 304 303 302 304 304 303 308 309 307 308 309 307 307 308 307 306 307 308 309 309 311 309 321 310 310
331 332 334 333 332 330 330 329 329 328 329 330 331 331 330 329 328 326 324 323 321 320 317 316 316 315 315 317 317 317 316 315 316 316 316 316 313 313 313 313 313 314 314 313 312 312 311 311 311 310 309 308 306 305 305 309 309 310 310 310 309 303 301 302 300 296 305 307 306 307 305 305 306 306 306 305 305 306 308 307 308 307 310 311 307
331 333 333 332 332 332 332 329 328 329 330 330 331 330 328 329 329 328 326 323 322 321 320 318 316 316 315 314 314 315 315 314 313 314 314 314 312 312 312 313 313 313 315 312 311 311 311 312 312 310 309 309 306 304 304 304 305 307 308 308 310 308 305 301 297 299 296 300 304 304 303 304 304 304 304 303 304 305 305 307 305 305 305 308 305
332 332 331 331 331 332 331 329 329 330 330 330 329 329 328 328 328 327 326 323 321 319 318 317 317 316 314 313 313 313 313 313 312 312 313 314 312 311 312 312 312 313 314 310 310 310 310 311 311 310 310 309 306 304 303 304 303 303 307 306 307 307 305 303 303 300 298 295 296 300 302 302 302 302 303 302 303 303 303 304 304 303 304 304 304
331 330 330 329 330 331 331 330 328 328 329 330 329 328 329 329 327 325 322 322 321 320 319 318 316 315 313 312 311 311 311 312 311 311 311 312 314 311 310 310 311 311 313 310 309 309 309 308 308 308 307 307 308 307 304 303 303 302 302 302 303 302 302 302 302 302 299 294 294 295 296 299 300 301 301 302 302 302 302 302 304 303 304 303 302
330 330 330 330 330 330 329 327 327 328 329 329 329 329 329 328 325 324 322 321 321 319 318 316 314 313 311 310 310 309 309 309 310 310 310 310 310 310 309 309 309 311 311 307 307 307 307 307 307 307 307 306 306 306 305 303 303 303 302 302 300 300 299 299 299 299 298 297 294 294 295 295 294 297 300 300 301 301 301 301 301 301 301 301 301
329 329 329 329 328 327 327 327 328 328 329 329 329 327 326 326 325 323 322 320 319 317 314 312 312 311 310 309 309 309 308 307 308 308 308 308 309 311 309 309 309 312 309 306 306 306 306 306 306 305 306 305 304 304 305 304 303 302 301 300 300 300 298 297 297 298 297 294 293 293 294 295 295 295 297 300 301 300 301 301 300 300 300 300 300
Wind_Speed
7 10 8 12 13 15 16 17 17 16 17 16 15 16 16 16 16 15 16 16 15 15 14 14 14 14 13 12 12 12 12 12 11 11 11 10 11 11 11 11 10 11 12 12 12 12 12 12 11 11 10 10 10 10 10 10 11 11 11 11 11 11 12 12 12 11 11 12 13 12 12 12 13 13 14 14 13 12 12 13 11 7 4 8 13
13 9 8 9 13 13 16 17 17 17 17 16 15 16 16 16 16 16 16 16 16 15 14 14 13 13 13 12 12 11 11 11 11 11 11 11 11 11 10 11 10 10 12 11 11 11 11 11 10 10 9 9 9 9 9 9 9 10 10 11 11 11 11 12 12 13 12 12 12 12 12 12 12 12 13 13 13 12 12 12 11 3 2 11 12
12 10 8 10 15 16 15 17 18 17 16 15 15 15 16 16 16 16 16 16 16 15 15 14 14 13 12 12 12 11 11 11 11 11 10 10 10 10 10 10 10 11 11 11 11 10 10 10 10 9 8 9 9 9 8 8 8 9 8 9 10 11 11 10 11 12 13 12 11 12 12 12 11 12 12 12 12 12 11 11 10 9 6 11 10
15 10 9 13 17 14 14 17 18 17 16 14 14 15 15 16 16 16 16 16 15 15 15 14 13 12 12 12 11 11 11 10 10 11 11 11 10 10 10 9 9 10 10 10 10 10 10 9 8 8 8 8 9 8 8 8 8 7 8 9 10 10 9 10 11 11 13 12 11 7 3 4 6 10 10 10 11 11 11 10 10 9 10 10 11
14 11 10 10 11 12 14 17 16 17 16 14 15 16 16 17 16 16 17 16 14 14 14 13 13 13 12 11 11 11 11 11 10 10 10 10 10 10 9 9 9 9 10 9 10 10 9 8 7 7 7 8 8 8 7 7 7 7 7 7 8 8 8 9 10 11 13 13 10 5 2 3 4 9 11 11 10 10 10 11 11 9 10 10 9
13 11 10 9 9 11 14 15 17 17 15 15 16 16 17 17 17 16 16 16 15 14 14 14 13 12 12 12 11 11 11 10 10 10 10 10 9 9 9 9 9 10 9 8 9 9 8 8 7 6 7 7 8 8 8 8 7 7 7 7 7 7 6 5 6 10 10 8 7 1 1 2 2 4 10 10 10 9 9 10 10 8 9 10 8
15 10 10 9 8 10 13 15 17 17 15 15 16 17 17 17 17 16 16 16 15 14 14 14 13 12 12 12 12 11 11 10 10 10 9 9 9 9 10 10 9 8 8 8 8 8 7 7 7 6 6 7 7 8 8 8 8 7 7 7 7 6 6 4 3 2 3 3 3 1 0 0 3 2 9 10 9 9 9 10 9 9 9 9 7
11 9 9 8 8 12 14 16 17 17 16 17 17 17 17 17 16 16 16 16 14 14 14 13 13 13 12 12 12 11 11 10 10 10 10 9 9 9 9 10 9 8 8 8 8 7 7 7 6 6 5 6 7 7 8 8 8 8 7 7 7 6 6 5 4 4 4 1 2 2 2 2 3 2 9 9 10 9 8 8 7 8 9 8 7
10 10 9 8 9 18 15 15 17 18 17 17 17 17 17 17 16 15 16 15 14 14 14 14 14 13 12 12 11 11 11 11 10 10 10 10 9 9 9 9 9 8 8 7 7 7 7 7 6 5 5 5 6 6 7 7 7 7 7 7 7 7 6 6 6 6 4 1 3 3 3 3 4 2 7 9 9 8 7 7 6 8 8 8 8
10 8 8 7 9 18 16 16 16 18 18 18 17 16 17 16 15 15 15 15 14 14 14 14 14 13 12 11 11 11 11 10 10 10 10 10 9 8 8 8 7 7 7 6 7 7 7 6 6 5 5 5 5 5 6 6 7 7 7 7 6 6 6 6 7 5 2 1 5 5 3 6 3 3 6 8 9 10 9 9 6 5 5 8 7
10 9 7 7 11 15 14 14 16 17 18 18 17 16 16 15 15 15 14 15 15 14 14 14 14 13 12 12 11 11 10 10 9 9 9 9 8 8 8 8 7 6 6 6 6 7 7 7 6 5 5 4 5 4 5 6 6 6 6 6 6 6 7 8 6 3 3 6 7 5 6 10 3 1 7 8 8 8 7 7 7 7 6 6 7
10 8 7 7 14 14 14 14 16 15 17 17 16 16 15 15 15 14 14 14 15 14 14 14 13 13 12 11 11 10 10 9 9 8 8 8 7 6 7 7 6 6 6 6 7 7 7 7 6 6 5 4 4 5 5 5 6 6 6 6 7 7 8 9 5 5 3 6 5 3 5 5 3 4 9 8 8 8 7 7 7 6 6 7 6
11 9 8 8 8 13 13 13 14 15 16 16 15 15 15 14 15 15 14 13 14 14 14 13 12 12 11 11 11 10 9 9 8 8 7 7 7 6 6 6 5 5 5 6 6 7 7 7 6 6 5 5 5 5 5 6 6 6 6 7 8 8 9 9 4 5 3 5 3 4 5 5 4 9 9 10 9 8 7 7 6 6 6 6 5
11 9 7 8 7 14 13 12 12 13 14 14 14 13 13 14 14 14 13 12 13 14 12 12 12 12 10 10 10 10 9 9 8 7 7 6 6 6 5 5 4 5 5 5 6 6 7 6 6 6 5 5 5 6 6 6 6 6 7 7 7 7 7 5 5 4 3 5 3 3 4 4 4 10 10 10 10 9 8 7 7 6 6 5 5
13 10 9 7 7 7 15 11 11 12 11 11 12 12 13 12 13 13 13 14 14 12 12 13 12 11 10 10 9 10 9 8 7 7 6 6 6 5 5 4 4 4 4 4 5 5 6 6 6 5 5 5 5 6 6 6 6 7 7 8 7 7 8 3 3 3 2 5 4 4 4 4 8 10 10 10 10 9 8 8 8 6 5 4 3
14 13 10 7 7 7 7 12 13 12 11 12 12 13 14 13 13 14 13 13 12 11 11 11 11 11 10 9 9 8 8 8 7 6 6 5 5 5 4 4 3 3 3 3 4 4 4 5 5 4 4 4 5 5 6 7 7 7 7 7 8 7 8 6 3 1 1 4 3 4 5 4 11 10 11 11 11 10 8 8 7 6 5 4 4
11 11 10 9 7 6 5 6 10 15 13 13 12 13 13 12 12 12 12 13 12 12 11 11 11 10 9 9 8 8 8 8 7 6 5 4 4 4 3 3 2 2 2 3 3 3 3 3 4 4 3 3 4 5 6 7 8 8 8 7 8 8 7 6 2 1 1 4 5 4 4 5 10 10 11 11 11 10 10 8 6 6 5 4 2
9 9 9 8 7 5 6 6 6 7 7 11 13 14 14 13 11 11 11 11 10 10 10 10 10 9 9 8 8 8 7 7 7 5 4 3 3 3 2 2 2 2 1 1 2 2 2 2 2 3 3 3 4 4 6 7 8 8 8 8 8 8 8 5 1 2 0 5 4 3 4 6 10 10 10 10 10 10 9 7 6 6 6 4 3
9 8 7 7 7 6 6 5 5 5 5 5 4 10 15 13 11 12 11 10 10 10 10 10 9 9 9 9 8 8 7 7 7 6 5 4 3 2 1 1 1 1 1 1 1 1 1 1 2 2 3 3 4 5 6 7 8 8 9 9 9 9 8 4 0 1 2 5 3 3 3 7 9 11 11 10 10 9 8 8 7 6 6 4 4
8 7 6 5 6 6 5 5 5 5 5 3 5 6 12 14 12 12 11 10 10 10 9 8 9 8 8 8 7 5 5 4 7 4 5 4 2 1 1 0 1 1 2 2 3 3 3 2 1 2 2 3 4 5 5 6 8 8 8 9 8 9 3 2 2 1 1 4 5 5 5 9 10 12 12 12 12 11 9 9 8 7 7 4 5
6 6 6 6 6 6 6 5 4 5 5 3 4 5 8 12 10 12 11 10 9 9 8 8 7 6 6 6 5 2 1 0 1 1 4 1 3 3 2 1 2 3 3 3 4 4 5 4 3 2 3 3 4 6 6 7 8 8 9 9 9 6 5 0 0 2 0 4 4 5 9 12 12 13 13 13 13 12 11 11 10 10 8 7 6
8 7 6 6 6 5 6 5 4 4 4 3 3 4 5 8 3 4 4 5 6 7 5 3 5 1 6 3 1 1 1 1 1 4 1 2 2 4 4 3 3 4 4 4 4 4 5 6 6 6 5 5 4 2 3 6 8 9 9 10 6 5 5 3 0 1 1 4 4 6 12 12 13 13 14 14 14 13 13 12 11 10 9 8 7
9 8 7 7 6 6 4 4 4 4 3 2 2 2 3 2 3 3 3 5 4 4 2 3 2 2 2 1 1 0 1 2 2 3 2 3 2 4 4 4 4 5 6 6 6 5 5 6 7 7 8 8 4 3 3 3 5 7 7 6 5 6 5 6 2 1 2 3 4 8 12 12 13 14 14 14 14 14 14 13 12 12 11 9 8
10 9 8 6 7 6 5 4 4 4 3 2 2 3 2 2 2 2 2 2 1 2 2 1 1 1 1 1 1 2 2 2 6 6 2 1 1 3 4 4 6 6 8 6 6 6 7 5 6 7 5 3 3 5 5 5 5 5 5 5 5 6 5 5 5 2 2 4 5 10 12 12 12 13 13 14 14 14 14 14 13 13 12 11 10
10 10 8 8 8 8 7 5 4 3 3 3 3 2 2 2 2 2 2 2 1 2 1 0 0 2 1 2 2 1 2 1 1 2 2 1 0 1 2 3 3 4 6 4 4 5 5 5 2 3 3 2 2 3 3 4 5 5 5 5 5 5 6 5 5 5 3 4 5 11 12 11 12 13 13 13 13 13 14 14 14 13 13 12 11
10 10 10 10 11 11 9 7 6 4 4 4 4 5 5 4 4 4 4 4 4 3 1 0 1 2 3 2 2 3 4 2 1 2 2 1 1 2 2 2 2 2 3 4 4 4 5 5 4 4 4 3 3 3 3 4 5 5 6 6 5 5 6 6 5 5 5 5 5 10 12 12 12 11 12 13 13 14 14 14 14 14 13 12 12
9 9 9 8 6 4 7 8 5 4 5 5 5 5 6 6 6 5 5 5 4 2 2 2 2 3 3 3 4 3 3 2 1 2 2 1 1 1 2 2 2 2 2 2 3 4 4 5 4 4 5 3 4 3 3 4 5 6 6 5 5 5 6 6 6 5 3 4 4 10 12 11 11 11 12 14 14 14 14 14 14 14 14 14 14
10 10 7 7 6 5 4 5 5 4 5 6 6 5 5 4 5 4 5 5 4 2 2 4 4 4 3 3 3 3 2 3 1 2 1 2 3 2 2 3 3 2 2 2 2 3 4 4 4 5 4 3 3 3 3 3 4 3 3 4 5 5 6 6 5 4 4 3 3 6 11 11 10 11 12 13 14 14 15 15 15 15 15 15 15
9 7 7 9 10 8 6 6 3 5 6 6 6 5 5 5 4 4 5 4 4 3 4 3 3 4 3 3 2 3 2 1 0 1 0 2 2 2 2 2 1 2 2 1 0 1 2 3 3 4 4 4 4 3 3 3 3 2 1 3 3 4 4 4 4 3 1 1 2 4 9 10 11 11 11 12 13 14 15 15 15 16 16 15 15
6 8 9 9 10 10 10 11 8 7 7 7 8 5 4 3 3 2 3 3 4 4 3 3 3 4 4 3 2 3 1 0 1 0 1 0 1 1 2 2 2 2 2 2 1 1 2 2 1 2 2 2 2 2 2 4 5 3 2 3 4 4 3 4 4 4 3 2 2 2 8 10 11 11 11 12 13 14 14 16 15 15 15 16 13
8 9 5 3 6 9 9 9 5 5 5 4 2 4 4 4 4 4 4 5 5 5 4 2 1 3 2 2 3 1 4 1 2 2 1 2 1 2 3 3 3 3 3 4 2 2 2 3 3 3 4 4 4 4 4 4 4 4 3 3 4 4 4 4 4 3 3 3 2 3 3 8 10 10 11 11 11 13 15 14 15 18 18 16 13
7 7 5 2 6 7 9 9 8 7 7 5 4 4 4 5 4 4 4 4 5 5 4 2 3 1 1 3 1 4 0 3 3 3 2 2 0 0 2 2 2 3 2 2 3 3 2 2 2 3 3 3 4 4 4 4 4 4 4 3 3 4 4 4 4 4 3 3 4 5 4 3 6 8 9 10 11 12 14 16 16 17 17 16 13
6 8 7 5 6 8 8 9 9 8 8 7 5 4 4 4 5 5 3 2 4 5 4 3 4 3 2 4 4 4 4 2 1 1 2 2 1 2 1 1 2 3 3 3 3 4 4 5 5 4 5 5 5 6 5 5 5 5 4 4 3 4 4 4 5 4 4 3 4 4 4 3 3 6 8 9 11 12 13 14 15 17 17 17 16
9 9 9 9 6 3 4 6 8 9 8 6 5 5 4 5 4 4 4 3 3 4 4 2 1 1 3 4 5 2 3 2 3 3 3 4 1 0 1 2 2 3 3 3 5 4 5 6 6 5 5 5 6 6 6 7 6 6 6 5 5 5 5 5 5 5 4 4 5 3 5 4 4 5 4 7 11 12 13 13 14 15 16 17 16
9 11 12 10 7 5 5 6 7 8 8 7 6 5 4 5 5 4 4 4 4 4 2 1 1 0 1 3 3 3 4 3 3 4 5 4 2 0 1 1 2 3 4 5 5 5 5 6 6 6 5 6 6 6 6 5 6 6 6 6 6 6 6 6 6 6 6 5 5 4 4 4 4 4 5 5 7 10 12 12 12 14 15 16 17
12 9 9 9 8 5 6 8 7 9 8 7 5 5 6 6 5 5 5 5 5 4 2 1 1 1 3 3 1 2 3 3 5 5 5 4 2 2 4 4 4 5 5 5 6 6 5 5 5 5 6 6 6 6 5 6 5 6 5 5 5 6 6 6 7 6 7 6 6 5 5 5 5 5 5 5 6 7 11 12 13 13 14 15 16
8 11 10 9 9 8 7 9 8 8 8 7 5 5 6 6 5 5 5 5 5 4 2 1 1 2 2 3 2 2 5 7 7 6 6 5 5 5 5 5 5 6 6 6 6 5 5 5 6 5 4 4 6 6 6 5 5 5 4 5 5 6 6 6 6 6 5 6 6 6 6 6 6 7 6 6 6 7 12 17 15 15 15 15 15
9 9 9 10 10 9 7 7 7 7 6 6 6 6 6 6 5 5 5 5 5 4 3 2 2 1 1 2 2 5 7 8 7 6 7 5 5 5 5 5 5 5 5 5 5 4 4 4 5 4 4 4 6 5 6 6 5 5 5 5 5 5 5 6 6 6 7 9 9 10 9 10 10 7 7 6 7 7 7 9 15 17 17 16 18
7 8 8 9 9 8 8 7 8 7 6 5 5 6 6 6 5 5 5 5 5 4 4 4 3 2 3 4 4 6 7 7 7 6 7 6 5 5 5 4 4 5 5 5 5 4 4 4 5 5 4 5 5 5 5 5 5 4 4 5 3 4 3 6 7 8 8 9 9 9 9 10 9 10 10 10 9 10 10 8 8 8 9 17 18
8 8 9 9 10 9 7 7 7 7 6 5 5 6 5 6 7 5 6 5 5 5 4 4 2 5 5 5 5 7 7 7 7 7 6 6 5 5 6 5 6 6 7 8 7 6 7 6 7 6 6 6 8 8 8 6 5 3 4 5 2 3 3 7 9 9 9 10 9 9 10 9 10 10 11 10 10 10 10 10 9 9 8 11 15
8 8 9 9 10 10 10 9 7 7 6 6 5 7 8 6 4 5 7 4 5 4 5 5 6 5 6 6 6 7 7 7 7 7 6 6 5 5 6 6 6 7 7 7 6 7 7 6 5 5 7 7 9 9 9 5 5 4 2 4 5 4 3 6 10 10 9 8 8 9 9 10 10 10 10 9 10 10 10 10 9 9 10 9 13
7 7 8 8 8 9 9 8 7 6 5 5 5 4 3 4 6 6 6 5 5 6 7 6 6 6 7 6 6 7 8 8 7 6 6 6 6 6 6 6 6 6 6 6 6 7 7 8 5 5 6 7 6 8 9 5 6 4 5 6 6 4 2 5 10 10 9 9 9 10 10 10 11 10 9 10 10 10 10 9 9 8 9 10 11
8 7 8 9 8 7 7 7 6 6 4 3 4 4 3 4 5 6 6 6 4 5 7 6 6 7 7 6 7 7 8 8 7 6 6 6 6 6 6 6 6 6 7 7 7 8 7 7 7 5 5 5 5 7 9 8 4 5 1 1 4 7 6 6 3 8 8 8 9 11 10 10 11 10 9 9 9 10 9 9 9 8 9 11 11
8 7 8 9 7 6 6 6 6 5 4 2 2 3 5 5 5 7 6 7 7 7 7 6 6 8 8 6 7 7 8 7 7 6 6 7 6 6 5 6 6 5 6 7 7 7 7 7 7 6 3 5 5 6 7 7 6 5 5 2 3 2 4 4 8 7 4 8 11 10 10 10 9 11 9 10 10 9 9 9 9 9 8 11 10
7 7 7 7 5 6 5 6 6 5 5 5 4 5 7 7 6 7 9 9 7 6 6 5 5 6 7 7 6 6 7 7 6 6 6 6 6 6 6 6 6 6 6 7 7 6 6 6 6 7 7 4 5 4 7 8 10 8 3 3 4 4 2 6 9 3 9 7 10 9 11 11 10 11 9 9 9 8 9 9 9 10 7 11 11
7 6 6 7 6 6 6 6 5 5 6 5 5 5 7 8 9 9 9 7 6 5 5 5 5 6 7 5 7 6 6 6 6 6 6 6 6 6 5 6 6 7 6 6 6 7 7 8 6 5 7 6 4 6 6 7 7 9 8 6 4 2 3 5 5 7 4 4 5 7 10 11 9 10 9 10 11 10 9 9 10 10 9 10 10
6 6 7 7 7 6 6 6 5 5 5 5 5 5 5 5 8 8 7 7 7 4 4 3 5 5 6 7 7 6 7 7 7 6 6 6 5 5 5 6 6 6 6 7 7 7 7 6 6 6 6 5 5 8 7 6 5 9 7 6 6 6 4 6 5 5 6 3 5 9 8 10 10 9 10 11 11 10 9 8 10 11 10 9 10
6 7 7 7 7 7 8 6 5 6 5 6 5 4 6 6 7 7 6 6 7 8 6 5 5 5 7 7 7 7 7 7 7 7 6 5 5 5 6 6 6 6 7 7 7 6 7 6 6 5 5 5 5 7 6 7 7 5 6 8 7 7 7 8 5 3 3 9 7 4 4 10 8 7 8 11 10 10 10 9 10 11 9 10 11
8 8 7 6 6 7 8 6 6 6 5 6 6 4 4 7 8 8 8 6 8 7 6 5 6 5 8 7 8 8 8 7 7 6 6 5 5 5 6 6 7 7 7 7 7 7 7 6 6 6 6 6 6 5 7 7 7 7 6 7 7 7 6 6 6 6 5 5 7 10 11 5 5 5 8 8 9 8 8 9 9 10 9 10 11
8 9 8 7 5 7 7 7 6 5 5 6 5 5 6 7 8 8 10 8 7 7 6 7 6 6 9 7 7 7 7 6 6 5 5 5 5 5 6 7 7 7 7 7 7 7 6 6 6 5 6 7 6 7 8 7 7 6 6 6 6 5 5 5 5 6 3 4 6 10 10 14 13 8 7 9 9 9 8 9 8 10 9 10 11
9 9 8 8 7 6 7 7 6 5 5 6 6 6 5 6 8 8 9 10 9 8 8 7 6 7 8 7 7 7 6 6 5 5 5 5 5 5 6 6 7 6 7 7 6 6 5 6 6 6 7 7 7 8 9 8 7 8 8 7 7 7 7 7 6 6 5 4 6 6 9 9 9 10 6 9 8 8 7 9 10 11 10 11 11
Wind_Direction
167 152 153 160 155 151 148 142 138 136 133 130 123 119 115 113 110 108 108 105 101 99 96 95 93 91 90 88 88 90 91 95 97 98 99 102 101 98 100 102 97 92 90 88 85 81 76 72 69 67 66 66 70 74 75 74 76 79 85 90 92 93 96 98 97 99 102 91 89 94 91 90 89 91 88 89 89 87 84 80 69 65 42 78 80
158 154 154 155 155 151 148 143 140 138 135 131 124 119 116 114 111 111 109 105 103 101 99 97 96 93 90 89 91 92 94 97 101 102 102 103 105 106 105 104 102 98 92 90 86 80 77 72 69 65 63 64 68 72 75 78 78 84 88 89 87 95 100 102 103 99 95 94 95 90 89 90 92 92 92 95 95 93 90 89 88 66 55 79 79
140 146 152 154 153 151 149 144 140 138 136 131 124 119 117 114 113 110 108 105 102 102 102 98 98 95 94 95 94 94 95 98 100 104 105 103 104 105 104 102 105 100 97 92 85 80 78 73 67 63 60 61 65 71 77 78 78 79 85 93 93 101 101 102 105 104 99 93 91 95 93 95 96 96 97 98 98 96 92 89 90 89 82 77 76
139 147 150 153 152 150 149 145 140 139 136 130 122 119 117 115 112 111 107 104 102 103 103 101 97 96 98 99 98 98 98 100 104 109 109 110 107 108 110 107 102 100 100 96 91 83 75 73 68 62 58 58 62 65 72 77 74 69 78 82 85 96 103 110 108 102 96 88 84 73 66 67 85 95 96 96 96 94 93 93 89 87 88 84 80
138 144 150 150 148 151 150 144 141 138 135 128 123 120 118 115 115 112 108 104 104 105 105 104 103 102 100 99 100 100 99 103 106 106 108 110 111 109 110 111 102 96 95 93 88 86 81 74 69 62 56 57 59 65 68 74 74 68 62 68 77 84 92 114 114 111 108 102 90 68 68 100 100 98 97 95 98 104 105 94 93 94 93 88 89
141 145 146 142 146 150 149 146 142 138 134 129 126 122 119 116 116 113 109 107 107 107 106 105 105 103 104 104 103 103 103 105 107 105 105 109 113 115 113 108 103 98 92 89 88 83 78 75 68 63 53 53 58 62 67 71 69 70 61 66 67 67 68 77 122 133 129 69 92 72 82 103 99 89 97 99 97 88 82 94 88 86 86 89 82
138 139 140 141 143 149 149 146 142 139 134 130 128 124 121 120 118 114 111 111 110 109 108 108 107 106 106 107 107 107 107 107 107 108 107 109 111 109 106 103 100 100 96 91 82 78 74 68 64 58 50 48 54 59 62 64 67 64 64 64 63 61 55 59 38 342 283 43 106 125 122 66 83 87 98 101 96 90 86 94 103 92 85 86 72
127 132 138 140 141 148 148 147 143 139 135 134 130 126 124 123 120 116 114 114 113 112 113 112 110 111 110 110 112 111 109 108 106 107 103 98 100 106 109 103 94 87 80 75 71 65 61 54 53 57 46 40 49 54 55 59 60 57 55 52 48 42 37 16 2 329 301 314 127 170 147 90 66 63 104 102 98 91 96 90 82 85 90 90 79
125 131 133 136 143 147 149 147 145 142 138 135 132 128 126 124 121 118 117 117 117 116 116 116 115 113 113 113 114 113 114 113 110 106 105 102 98 96 93 90 83 83 79 76 69 62 53 48 41 35 38 38 37 42 48 48 48 47 41 38 32 26 18 358 336 323 294 220 148 140 146 113 99 85 109 103 99 94 86 71 76 91 92 89 86
123 125 134 138 145 148 147 148 147 143 139 136 132 130 127 124 121 120 120 120 120 120 119 118 116 114 114 113 112 113 113 113 112 108 107 104 104 102 100 97 94 92 89 85 76 65 58 48 44 30 26 18 23 24 33 40 34 34 31 28 19 11 4 343 339 331 287 218 142 142 157 130 114 117 120 115 108 109 110 113 112 98 96 89 86
123 128 131 137 144 142 144 147 146 143 138 136 133 130 129 125 123 123 123 123 123 122 121 120 119 118 116 116 115 114 114 114 113 109 106 104 99 93 85 83 81 79 78 78 74 68 60 55 53 44 29 8 354 10 18 20 23 21 19 14 5 2 359 353 358 332 1 111 131 152 149 128 117 135 124 118 113 109 103 99 102 93 84 86 83
125 129 133 138 141 137 143 144 143 140 137 135 132 131 129 126 126 126 126 126 125 122 122 122 122 121 118 116 115 114 115 115 115 116 112 106 103 100 94 90 88 85 82 79 73 67 59 57 59 54 40 23 1 3 6 8 9 8 5 2 355 0 1 9 9 358 56 120 132 145 123 127 148 141 128 123 115 115 109 98 97 97 91 90 88
129 133 136 133 129 141 142 142 141 138 136 133 131 130 128 129 128 128 126 125 126 125 125 124 123 122 121 119 118 116 114 111 106 106 108 105 105 102 100 96 89 84 81 79 76 71 66 62 60 52 42 27 15 8 3 2 360 358 354 358 355 358 5 16 9 10 94 121 131 138 144 147 159 141 136 132 126 119 116 112 106 99 96 90 93
130 129 127 125 135 143 141 139 137 136 134 132 129 127 130 130 129 128 126 127 128 127 126 127 126 126 123 124 123 121 120 120 119 121 122 120 115 109 104 98 89 81 82 81 78 74 70 65 61 57 43 26 18 7 5 358 358 348 350 353 349 355 7 25 16 11 95 124 133 158 147 154 161 147 144 141 136 127 126 124 119 113 98 105 106
129 127 127 136 138 138 139 134 134 131 127 123 120 124 126 125 126 126 129 130 130 129 130 131 129 129 129 130 129 130 132 134 134 135 133 129 122 118 115 110 100 93 82 78 80 76 73 70 66 61 46 28 12 359 355 351 347 341 347 349 341 345 6 46 17 14 103 137 149 168 169 172 160 153 150 145 141 134 133 130 127 124 120 105 110
128 130 132 130 130 136 132 136 133 125 123 119 120 126 129 127 130 131 130 130 131 131 133 131 133 133 133 135 136 137 135 135 138 141 138 132 125 124 121 115 116 102 96 91 84 81 71 71 65 59 52 31 5 352 346 335 337 336 338 337 332 338 359 22 28 359 19 154 153 175 186 177 164 159 155 150 146 141 140 140 136 130 126 128 109
122 127 128 128 124 119 121 113 129 127 121 121 122 125 126 128 130 131 132 134 136 138 137 138 136 137 137 139 139 137 140 144 145 147 142 138 134 129 126 121 115 116 104 95 81 81 75 67 64 56 54 28 355 336 328 329 328 329 329 329 330 334 344 22 30 288 220 159 169 185 205 179 170 166 158 156 152 147 147 145 147 140 137 141 133
119 121 120 119 116 105 102 109 113 110 118 122 125 131 133 131 133 134 137 140 141 141 141 140 138 139 141 143 146 149 150 148 150 149 156 151 148 149 144 133 115 103 86 85 91 72 80 53 49 47 33 15 350 335 329 322 322 324 324 323 325 325 330 31 43 308 331 182 177 177 226 192 174 169 164 160 155 152 155 152 157 150 159 151 143
107 102 102 109 104 100 90 82 90 89 97 108 121 138 138 136 139 142 144 144 146 146 144 140 142 145 152 152 153 154 156 157 155 160 169 178 175 177 168 172 123 97 39 20 17 10 3 48 6 29 10 354 339 334 318 316 313 317 317 317 316 314 331 29 149 255 302 159 170 186 240 210 176 174 167 162 158 155 157 162 164 161 170 174 149
99 100 95 85 98 97 88 87 82 89 99 109 131 141 143 145 147 148 149 151 148 145 142 145 151 154 153 154 154 156 160 164 167 166 174 187 212 220 231 291 331 25 12 351 352 351 338 325 12 345 338 325 321 322 316 308 306 303 303 299 299 311 331 0 344 317 218 173 177 180 222 210 189 180 173 168 167 165 165 166 172 176 184 192 169
106 102 103 101 96 99 96 95 97 110 115 121 139 144 154 151 153 154 153 151 148 142 144 153 154 156 153 157 151 120 123 200 175 189 177 182 234 265 268 284 335 338 356 349 341 334 326 318 298 274 284 281 298 302 308 310 306 299 293 297 305 313 295 339 254 299 163 189 182 186 212 203 194 187 177 175 174 174 170 172 181 186 193 200 197
131 126 111 115 113 106 107 107 111 124 133 141 147 156 156 151 136 147 145 146 144 145 150 154 159 138 160 142 102 139 156 216 255 206 174 215 235 249 276 305 315 327 326 326 331 330 322 316 312 301 282 272 270 294 307 310 307 303 302 301 304 295 298 304 209 254 240 186 185 209 206 201 200 191 184 180 181 179 177 180 187 195 201 212 201
140 131 126 123 118 115 110 118 130 142 145 144 137 131 128 115 117 120 143 145 157 150 156 169 109 148 104 100 162 268 167 242 230 240 191 212 226 244 262 289 308 310 318 316 317 317 312 304 304 304 297 291 295 288 280 276 283 292 300 305 301 297 295 296 297 207 252 209 201 219 204 204 206 196 190 187 187 184 182 186 192 199 203 207 216
137 131 129 123 125 124 133 142 152 156 137 132 88 97 98 93 113 128 132 145 132 138 189 179 131 103 85 177 222 238 225 209 246 246 225 148 269 276 271 292 304 315 315 318 318 316 311 305 295 293 306 328 334 324 319 302 290 287 289 288 283 284 283 280 291 263 217 210 209 224 208 207 213 205 199 195 194 193 190 191 197 201 202 206 216
127 125 129 139 143 145 144 154 156 154 139 130 127 127 120 131 155 149 143 154 153 161 211 331 62 119 158 175 165 115 87 81 59 60 57 31 358 342 330 325 324 311 310 308 314 305 313 303 287 300 292 277 274 269 273 286 282 276 274 272 271 274 281 279 270 277 257 229 216 211 207 209 215 214 209 203 201 201 200 200 204 204 205 206 215
125 134 149 153 157 155 152 152 157 155 149 151 164 173 163 171 179 179 177 190 187 187 139 188 158 135 138 156 123 103 103 102 67 54 46 39 58 7 323 322 343 322 341 345 332 321 314 309 317 306 284 259 256 256 253 260 274 271 265 263 265 271 270 279 276 280 269 238 226 207 204 211 217 221 221 216 211 209 209 209 211 210 209 206 215
139 148 153 147 132 119 140 135 139 148 160 173 180 181 181 188 186 188 180 192 192 143 146 166 142 134 165 166 112 98 94 100 78 72 50 12 17 330 328 355 1 337 342 3 329 317 320 322 316 299 293 286 277 257 252 250 246 258 255 253 255 254 262 273 281 269 258 230 222 208 206 213 217 223 228 226 222 219 217 217 218 216 214 210 213
137 146 130 125 117 143 151 123 126 167 182 186 184 193 195 193 205 194 189 192 163 166 165 147 157 159 137 96 93 94 85 42 29 22 353 10 4 331 351 5 356 320 316 338 306 311 316 318 322 319 317 307 297 295 283 290 300 264 234 243 247 250 254 260 272 280 268 243 238 218 211 215 219 225 230 233 232 229 227 225 226 226 224 217 213
127 129 138 145 159 153 142 128 161 202 191 183 191 198 190 198 210 203 187 187 161 163 155 156 162 123 104 90 90 88 51 78 263 229 356 5 9 351 341 328 320 319 313 301 260 294 306 306 305 297 303 305 313 307 303 270 236 271 267 274 257 253 252 253 255 292 350 207 210 235 223 223 227 230 235 238 239 240 238 234 234 235 232 228 218
143 146 159 168 155 150 154 162 186 197 196 189 198 179 158 137 147 137 159 125 123 125 131 136 95 65 44 48 99 134 166 169 232 175 127 312 359 318 338 310 351 316 318 340 324 353 310 264 237 244 255 259 265 280 304 328 339 342 338 337 332 324 314 322 321 315 313 272 243 233 229 230 235 236 239 244 245 247 249 245 247 249 251 245 246
155 151 152 172 163 154 155 147 169 179 182 182 143 127 124 124 121 115 109 119 119 111 85 58 36 77 118 61 313 171 149 139 167 173 116 106 42 349 324 320 346 339 342 329 319 333 312 308 324 339 353 353 344 331 347 341 339 344 345 342 330 331 327 318 320 312 315 305 261 244 239 237 237 240 243 247 253 256 257 254 256 257 253 256 265
142 141 148 190 161 151 149 157 163 158 147 128 124 120 122 127 119 101 98 121 124 108 105 105 83 150 187 106 344 336 156 140 159 161 139 105 92 36 330 313 320 315 311 296 324 347 340 323 330 7 7 8 351 357 352 3 345 335 337 337 331 338 322 314 304 302 302 296 280 280 268 255 249 241 244 250 254 257 259 265 263 262 262 266 265
146 138 149 158 167 170 146 139 140 129 124 125 120 119 122 120 109 101 89 86 106 110 113 128 165 184 100 79 49 347 300 121 104 117 119 116 85 38 332 295 316 305 319 317 328 349 10 10 8 359 10 6 7 357 354 358 353 339 336 325 334 325 323 325 313 308 298 293 294 282 276 258 252 261 258 256 261 262 265 267 270 272 272 269 269
152 153 161 162 163 153 130 119 120 111 113 114 118 122 126 112 93 85 94 97 102 104 111 139 161 142 123 132 127 97 7 32 116 102 106 100 108 225 335 327 323 310 319 323 360 3 22 28 11 12 4 9 3 353 2 359 346 340 345 337 336 327 328 321 309 296 288 290 285 273 258 262 261 262 268 271 269 270 271 269 267 269 271 272 271
148 163 162 145 137 132 122 107 111 108 113 117 126 128 118 105 102 100 100 104 85 79 75 110 118 21 42 36 46 81 57 30 50 82 104 124 146 265 291 312 308 321 4 21 30 22 30 35 22 21 4 12 7 12 10 1 352 348 341 343 342 334 336 326 321 318 312 304 305 280 262 264 269 262 263 270 275 278 276 274 269 267 269 271 272
162 138 129 137 123 113 118 114 111 111 115 123 129 125 120 118 118 114 102 95 96 105 116 141 144 146 101 101 76 79 81 70 68 69 70 64 49 12 351 4 21 48 51 38 37 30 20 35 28 31 25 16 13 9 6 358 349 343 339 344 339 344 337 332 331 328 325 325 320 319 314 306 296 287 290 299 303 295 288 281 275 271 268 270 271
122 138 137 124 116 115 116 113 116 118 120 124 127 123 121 116 117 115 111 111 114 109 109 129 95 87 102 106 85 54 70 76 76 75 81 68 60 61 41 48 54 60 52 41 40 26 28 29 27 27 40 28 19 3 357 352 338 334 332 344 345 351 351 346 348 349 351 357 345 341 345 347 332 331 360 333 318 316 311 307 305 298 289 281 276
137 132 136 129 124 120 116 115 116 112 120 134 139 131 120 114 109 106 108 108 105 100 109 100 77 41 61 87 86 73 66 62 65 70 72 68 62 59 54 49 56 60 59 50 41 27 35 35 33 26 27 41 25 11 349 339 330 329 334 334 343 5 9 21 20 23 30 19 14 20 19 16 11 3 346 338 338 321 309 316 326 320 317 320 308
121 123 122 121 116 117 117 120 118 118 121 129 132 115 109 96 86 92 91 88 85 83 83 83 75 52 45 66 69 68 64 61 60 59 69 62 59 57 58 51 61 63 60 53 39 30 36 31 40 19 24 43 34 9 350 325 333 325 326 321 342 10 30 39 33 29 25 28 27 29 28 22 15 15 4 1 1 359 353 342 329 320 320 317 308
127 132 134 130 123 122 123 122 124 127 126 122 124 115 111 114 116 102 86 77 84 92 70 72 73 68 61 58 61 66 65 63 59 57 63 64 57 51 51 42 44 49 46 41 29 25 20 20 22 23 18 26 30 11 357 347 332 338 319 323 352 357 49 48 37 32 25 32 33 30 24 15 17 12 12 8 5 7 4 356 345 337 327 323 319
131 141 142 139 138 135 135 134 137 135 138 141 142 141 131 115 98 109 113 111 107 99 83 69 69 65 63 54 52 58 58 58 55 55 52 57 56 46 43 37 39 47 49 44 36 34 27 26 16 25 26 32 24 9 358 331 9 356 344 329 340 353 78 70 44 32 32 32 35 30 20 18 13 12 9 5 4 3 1 353 348 347 356 1 6
143 147 141 138 131 131 130 133 132 136 145 154 148 139 117 128 133 129 121 116 109 101 91 77 76 71 64 58 55 55 54 51 49 51 53 52 49 47 45 46 45 54 59 52 45 40 34 30 20 31 26 45 39 9 2 2 23 8 334 336 344 345 47 68 51 28 30 33 34 30 21 17 12 10 6 5 2 0 356 352 351 357 14 21 19
145 145 138 130 130 127 129 130 133 139 147 155 142 137 106 104 117 123 125 110 74 84 89 87 85 78 65 59 54 52 54 52 46 45 48 46 49 54 52 53 52 55 59 51 45 43 36 35 30 37 25 32 48 21 19 34 14 308 261 29 8 1 331 8 17 29 24 37 32 31 20 15 8 11 3 3 3 357 355 351 356 7 22 22 19
135 137 140 135 133 128 128 124 130 125 128 127 111 97 109 102 88 113 91 90 103 94 87 84 81 79 70 64 57 57 56 55 49 48 50 47 49 56 57 56 56 56 68 66 53 48 39 34 33 32 42 54 27 24 22 22 30 4 28 31 315 33 341 10 341 331 23 41 34 26 21 9 6 6 5 7 358 354 351 349 2 5 24 22 18
141 143 139 136 135 134 128 127 125 124 129 127 120 120 111 103 104 90 95 94 86 90 89 76 79 86 83 63 57 57 60 58 50 51 53 51 49 51 58 59 61 55 64 67 62 54 51 46 42 48 42 70 48 31 21 21 32 32 90 41 8 31 29 308 324 301 12 13 25 24 19 7 5 3 1 359 353 354 350 354 2 3 10 26 16
139 137 126 123 124 117 113 109 107 112 124 122 125 129 135 135 129 126 124 117 114 114 113 122 108 94 89 85 66 59 63 62 55 52 51 52 50 48 55 61 59 57 63 71 65 56 48 49 42 51 51 37 76 55 37 13 32 36 38 58 91 100 330 309 33 325 19 2 34 24 16 7 360 357 359 355 355 354 354 356 0 4 5 22 12
135 124 118 117 116 113 112 112 115 115 111 113 116 123 124 136 128 127 124 130 125 100 96 104 113 107 99 87 81 67 60 62 52 50 49 52 52 48 55 59 61 63 66 68 64 59 55 54 48 52 51 48 41 65 46 4 12 30 27 42 57 55 40 27 12 301 339 348 37 5 11 3 354 354 357 356 350 353 354 360 0 3 360 14 9
130 123 116 117 122 119 117 119 119 118 112 112 108 127 137 129 114 112 117 120 120 126 133 129 114 112 97 89 84 72 61 56 56 49 43 49 54 49 53 55 59 63 68 67 66 58 57 51 52 52 52 51 55 64 58 35 58 28 27 41 40 41 36 38 28 29 311 322 329 11 27 353 352 351 352 351 350 352 350 1 360 1 358 6 5
131 127 125 121 114 120 119 118 113 109 111 114 121 130 138 132 126 127 123 123 127 131 133 125 117 110 96 84 80 75 64 55 53 55 49 45 50 55 53 57 60 61 66 64 61 58 59 59 51 47 47 44 48 58 63 54 53 51 45 36 43 39 33 33 21 19 25 332 315 345 338 351 340 342 353 349 343 349 350 358 355 358 357 3 1
126 122 120 122 118 117 120 119 115 115 122 123 126 133 141 135 131 136 134 137 133 132 134 130 119 107 95 89 84 79 72 62 52 53 53 46 50 50 55 57 60 66 67 67 64 57 53 60 60 60 55 57 45 55 66 66 65 59 60 59 53 27 34 25 24 12 12 43 343 331 341 341 347 344 340 347 341 345 345 355 357 357 359 3 358
128 125 126 128 126 119 122 119 119 118 125 135 134 137 140 137 134 140 141 143 144 140 134 125 119 105 100 93 89 87 80 73 66 54 53 49 49 52 56 61 63 64 65 62 61 62 59 65 64 61 57 58 53 59 62 62 64 59 52 52 55 52 46 48 27 22 33 5 345 337 334 343 323 327 346 340 330 340 343 354 1 354 357 358 354